Date,TemperatureHighF,TemperatureAvgF,TemperatureLowF,DewpointHighF,DewpointAvgF,DewpointLowF,HumidityHigh,HumidityAvg,HumidityLow,PressureMaxIn,PressureMinIn,WindSpeedMaxMPH,WindSpeedAvgMPH,GustSpeedMaxMPH,PrecipitationSumIn
2013-1-1,64.9,47.7,31.5,64.3,47.1,31.0,98,98,98,30.13,29.98,14,3,0,0.00
2013-1-2,68.4,56.8,48.0,67.8,52.0,-48.2,98,93,1,30.04,29.93,12,4,0,0.00
2013-1-3,70.2,56.2,46.6,67.8,-35.7,-49.0,98,6,1,30.07,29.95,10,3,0,0.00
2013-1-4,75.0,50.2,31.5,74.4,27.1,-55.5,98,74,1,30.17,30.04,6,1,0,0.00
2013-1-5,74.3,46.6,27.0,59.5,18.5,-41.5,98,71,1,30.18,30.06,9,1,0,0.00
2013-1-6,58.5,47.1,36.3,57.9,46.6,35.8,98,98,98,30.09,29.91,12,2,0,0.07
2013-1-7,70.9,46.5,31.6,63.6,25.9,-38.5,98,78,1,30.03,29.90,4,0,0,0.00
2013-1-8,83.3,53.7,34.3,66.0,20.2,-35.5,98,68,1,30.00,29.91,5,0,0,0.00
2013-1-9,75.6,52.0,37.9,71.4,43.3,-36.3,98,90,1,30.01,29.88,3,0,0,0.00
2013-1-10,63.3,49.1,33.8,55.2,21.3,-45.3,98,71,1,29.99,29.80,11,3,0,0.01
2013-1-11,63.5,41.5,25.9,51.3,-2.9,-54.3,98,54,1,30.09,29.94,7,1,0,0.00
2013-1-12,63.9,40.1,24.4,51.9,4.8,-49.3,98,63,1,30.06,29.95,7,1,0,0.00
2013-1-13,66.0,41.5,25.2,39.6,-11.9,-55.5,98,44,1,30.06,29.93,8,1,0,0.00
2013-1-14,59.9,45.1,35.8,-40.9,-50.0,-55.7,1,1,1,30.24,30.05,10,4,0,0.02
2013-1-15,68.0,49.8,33.8,-36.0,-47.1,-56.9,1,1,1,30.34,30.21,11,2,0,0.00
2013-1-16,73.8,62.0,50.5,-32.5,-39.6,-46.6,1,1,1,30.25,30.04,10,4,0,0.02
2013-1-17,79.0,65.0,52.3,-29.4,-37.8,-45.5,1,1,1,30.09,29.96,11,3,0,0.01
2013-1-18,80.1,61.0,45.3,-28.8,-40.3,-49.8,1,1,1,30.07,29.96,10,2,0,0.00
2013-1-19,80.4,60.4,43.9,-28.6,-40.7,-50.7,1,1,1,30.09,29.97,12,2,0,0.00
2013-1-20,82.9,55.1,35.8,-27.1,-43.9,-55.7,1,1,1,30.06,29.92,7,1,0,0.00
2013-1-21,83.7,61.8,39.2,-26.6,-39.8,-53.6,1,1,1,30.02,29.89,10,2,0,0.00
2013-1-22,86.0,55.3,34.2,18.2,-40.5,-56.6,50,3,1,30.00,29.90,4,1,0,0.00
2013-1-23,85.3,58.4,45.5,52.8,-34.9,-49.7,98,7,1,30.00,29.90,10,1,0,0.12
2013-1-24,65.7,57.0,51.6,65.1,56.4,51.1,98,98,98,30.06,29.97,8,2,0,1.23
2013-1-25,59.0,56.8,55.0,58.4,56.2,54.4,98,98,98,30.02,29.85,5,1,0,0.59
2013-1-26,78.3,60.5,52.2,73.3,56.6,-30.6,98,94,1,29.87,29.75,7,2,0,0.15
2013-1-27,68.9,53.1,36.3,68.3,40.3,-45.3,98,85,1,29.91,29.79,8,2,0,0.00
2013-1-28,65.8,46.3,31.1,55.3,11.4,-49.0,98,64,1,30.08,29.91,8,1,0,0.00
2013-1-29,68.9,46.1,32.0,56.6,19.6,-42.9,98,71,1,30.11,30.02,5,1,0,0.00
2013-1-30,80.6,51.5,34.2,66.0,27.8,-34.0,98,75,1,30.22,30.10,6,1,0,0.00
2013-1-31,83.1,55.4,35.8,66.3,15.7,-40.2,98,62,1,30.14,29.99,8,1,0,0.00
2013-2-1,88.7,56.0,37.2,67.0,20.1,-38.9,98,65,1,30.06,29.99,5,0,0,0.00
2013-2-2,82.0,60.3,46.4,63.3,19.0,-38.9,98,60,1,30.09,30.00,5,0,0,0.00
2013-2-3,84.9,59.3,43.0,72.2,30.8,-34.6,98,72,1,30.03,29.88,6,1,0,0.00
2013-2-4,79.9,54.2,38.5,72.1,39.2,-32.2,98,83,1,29.97,29.86,5,1,0,0.00
2013-2-5,58.1,48.2,38.8,57.5,47.7,38.3,98,98,98,29.98,29.87,5,1,0,0.00
2013-2-6,72.7,54.0,39.9,67.8,37.3,-38.5,98,80,1,29.99,29.88,6,1,0,0.00
2013-2-7,68.0,49.0,35.2,67.4,48.5,34.7,98,98,98,30.03,29.85,8,2,0,0.00
2013-2-8,55.6,46.0,36.9,55.0,45.5,36.4,98,98,98,29.86,29.73,14,4,0,0.01
2013-2-9,67.6,45.0,28.9,61.8,18.3,-43.5,98,72,1,29.98,29.81,6,1,0,0.01
2013-2-10,65.5,44.3,30.4,64.9,43.8,29.9,98,98,98,29.98,29.88,6,1,0,0.00
2013-2-11,70.2,47.4,29.7,60.7,13.4,-43.0,98,66,1,30.12,29.96,8,2,0,0.00
2013-2-12,75.6,48.1,27.3,59.3,1.1,-49.2,98,53,1,30.23,30.12,7,2,0,0.00
2013-2-13,78.3,49.5,30.4,58.6,15.1,-39.4,98,66,1,30.16,30.02,8,1,0,0.00
2013-2-14,84.0,54.1,32.0,63.8,18.4,-39.3,98,65,1,30.08,29.95,9,1,0,0.00
2013-2-15,83.5,59.3,35.8,82.9,15.4,-48.8,98,57,1,30.10,30.00,12,2,0,0.00
2013-2-16,92.8,59.2,37.2,54.1,-2.3,-50.8,98,41,1,30.06,29.85,8,1,0,0.00
2013-2-17,79.5,52.6,32.9,66.1,24.4,-36.8,98,72,1,29.90,29.79,10,2,0,0.00
2013-2-18,72.7,54.4,42.6,67.4,44.6,-35.9,98,88,1,29.93,29.80,6,2,0,0.00
2013-2-19,58.5,48.8,42.1,57.9,48.3,41.6,98,98,98,29.85,29.58,12,3,0,0.32
2013-2-20,66.2,48.7,35.2,57.1,16.0,-44.7,98,66,1,29.87,29.59,8,3,0,0.00
2013-2-21,72.9,46.9,30.4,61.3,21.8,-43.7,98,73,1,29.98,29.86,8,2,0,0.00
2013-2-22,77.0,50.3,30.7,59.8,8.0,-47.2,98,59,1,30.08,29.99,6,1,0,0.00
2013-2-23,70.7,50.9,32.2,64.9,22.9,-47.5,98,71,1,30.04,29.78,9,2,0,0.00
2013-2-24,70.3,55.6,38.5,50.9,-24.9,-49.0,98,19,1,30.09,29.90,14,4,0,0.00
2013-2-25,79.7,50.4,29.1,79.1,38.0,-43.1,98,85,1,30.11,29.95,9,1,0,0.00
2013-2-26,80.6,56.6,29.3,60.7,5.2,-49.7,98,51,1,30.02,29.87,10,2,0,0.00
2013-2-27,81.3,56.5,34.9,73.7,3.0,-51.1,98,45,1,30.18,30.02,10,2,0,0.00
2013-2-28,88.2,58.9,35.6,86.1,36.0,-50.0,98,68,1,30.22,30.13,8,2,0,0.00
2013-3-1,93.2,66.1,41.7,91.8,12.2,-48.9,98,40,1,30.21,30.04,9,2,0,0.00
2013-3-2,95.4,63.6,39.9,94.7,35.8,-49.0,98,71,1,30.11,29.95,6,1,0,0.00
2013-3-3,80.2,59.8,46.2,65.0,29.9,-43.1,98,69,1,29.98,29.84,8,2,0,0.00
2013-3-4,74.1,56.0,42.4,73.5,54.9,41.9,98,96,35,29.97,29.88,7,2,0,0.00
2013-3-5,78.3,54.0,43.3,73.0,49.6,-29.9,98,94,1,30.00,29.90,11,2,0,0.00
2013-3-6,62.8,52.6,43.0,62.2,52.1,42.5,98,98,98,30.02,29.87,4,1,0,0.02
2013-3-7,67.3,54.9,48.0,66.7,40.9,-42.6,98,84,1,29.88,29.69,9,2,0,0.37
2013-3-8,61.2,51.3,42.4,60.6,50.8,41.9,98,98,98,29.90,29.66,8,3,0,0.51
2013-3-9,73.9,54.6,40.1,64.3,22.3,-37.4,98,67,1,30.09,29.90,9,2,0,0.00
2013-3-10,86.5,57.4,35.2,82.2,30.7,-38.2,98,71,1,30.16,30.04,9,2,0,0.00
2013-3-11,86.0,58.1,34.7,61.1,14.2,-36.1,98,58,1,30.07,29.93,8,1,0,0.00
2013-3-12,90.1,60.9,37.9,70.3,19.5,-37.8,98,61,1,29.97,29.89,6,1,0,0.00
2013-3-13,102.9,63.8,41.2,67.0,11.5,-42.3,98,51,1,30.00,29.90,7,1,0,0.00
2013-3-14,93.4,64.4,43.5,65.1,15.5,-37.5,98,55,1,29.98,29.87,7,1,0,0.00
2013-3-15,91.4,61.9,46.6,71.9,33.0,-32.7,98,71,1,29.90,29.80,5,1,0,0.00
2013-3-16,75.0,58.6,48.9,74.4,55.3,-33.3,98,95,1,29.86,29.73,5,1,0,0.00
2013-3-17,81.3,58.6,42.1,77.8,45.5,-30.7,98,85,1,29.88,29.78,6,1,0,0.00
2013-3-18,75.0,54.5,41.7,74.4,53.9,41.2,98,98,98,29.96,29.85,7,2,0,0.00
2013-3-19,77.7,58.8,45.0,77.1,58.3,44.5,98,98,98,29.99,29.91,8,2,0,0.00
2013-3-20,78.6,60.5,50.2,74.4,35.7,-36.6,98,75,1,29.96,29.82,8,2,0,0.00
2013-3-21,83.3,61.0,45.9,70.3,23.1,-33.3,98,64,1,29.83,29.66,9,2,0,0.00
2013-3-22,84.2,59.2,39.0,57.9,4.9,-44.5,98,48,1,29.77,29.66,9,2,0,0.00
2013-3-23,81.7,57.1,36.3,53.0,2.5,-45.0,98,48,1,29.88,29.76,9,2,0,0.00
2013-3-24,83.1,58.0,38.8,62.4,8.4,-43.8,98,52,1,29.90,29.76,8,1,0,0.00
2013-3-25,82.2,58.4,39.7,70.4,18.6,-37.5,98,60,1,29.85,29.76,6,1,0,0.00
2013-3-26,78.8,58.6,42.3,69.6,33.1,-34.9,98,71,1,29.84,29.77,8,2,0,0.00
2013-3-27,80.1,59.9,45.5,67.8,34.3,-35.2,98,70,1,29.92,29.80,8,2,0,0.00
2013-3-28,83.5,59.1,44.1,73.0,42.2,-31.0,98,81,1,29.96,29.88,7,2,0,0.00
2013-3-29,81.5,61.1,46.4,76.2,46.2,-33.9,98,82,1,29.98,29.90,8,2,0,0.00
2013-3-30,81.7,62.6,53.2,77.8,32.9,-35.8,98,67,1,30.00,29.91,8,2,0,0.00
2013-3-31,72.9,60.0,53.2,68.5,52.1,-35.2,98,90,1,30.00,29.93,8,2,0,0.14
2013-4-1,70.9,58.5,52.5,65.6,46.8,-37.9,98,86,1,30.05,29.94,8,4,0,0.02
2013-4-2,81.5,61.5,45.5,71.7,24.3,-38.4,98,63,1,29.98,29.86,8,2,0,0.00
2013-4-3,86.2,62.2,46.9,68.8,28.6,-34.4,98,65,1,29.95,29.85,6,2,0,0.00
2013-4-4,77.7,60.9,52.5,76.9,35.3,-38.2,98,71,1,29.99,29.88,12,3,0,0.00
2013-4-5,81.1,63.7,52.5,80.0,25.8,-39.3,98,59,1,29.96,29.84,10,3,0,0.00
2013-4-6,85.5,62.3,49.1,71.4,28.3,-33.7,98,65,1,29.96,29.80,9,2,0,0.00
2013-4-7,85.8,62.6,46.2,68.5,26.9,-35.9,98,66,1,29.83,29.63,10,2,0,0.00
2013-4-8,75.9,58.5,50.7,55.5,4.5,-45.4,98,45,1,29.70,29.52,11,4,0,0.00
2013-4-9,84.6,60.0,39.9,84.0,52.3,-34.9,98,90,1,29.87,29.70,10,2,0,0.00
2013-4-10,93.6,65.9,42.1,92.9,51.1,-49.4,98,83,1,30.00,29.84,10,2,0,0.00
2013-4-11,82.2,62.1,45.7,81.6,43.2,-37.0,98,76,1,29.84,29.63,9,2,0,0.00
2013-4-12,80.1,60.7,46.6,77.7,41.9,-32.7,98,79,1,29.74,29.65,7,2,0,0.00
2013-4-13,74.8,57.1,49.1,71.9,56.3,48.6,98,97,49,29.78,29.70,8,2,0,0.00
2013-4-14,65.5,58.0,54.1,64.9,57.4,53.5,98,98,98,29.74,29.68,8,2,0,0.01
2013-4-15,69.8,58.2,47.8,67.8,48.4,-35.9,98,87,1,29.76,29.69,8,3,0,0.00
2013-4-16,72.1,55.4,40.1,71.5,36.1,-37.9,98,78,1,29.89,29.73,11,2,0,0.00
2013-4-17,81.9,57.9,37.2,72.7,31.0,-46.7,98,71,1,30.01,29.89,10,2,0,0.00
2013-4-18,90.0,64.6,41.0,89.4,58.3,-50.5,98,92,1,30.11,30.01,12,3,0,0.10
2013-4-19,95.2,66.3,40.3,94.5,61.8,-35.5,98,94,1,30.05,29.83,10,2,0,0.00
2013-4-20,99.9,69.6,44.6,90.0,38.9,-41.6,98,64,1,29.85,29.74,8,2,0,0.00
2013-4-21,90.5,68.4,48.4,79.3,26.2,-35.2,98,59,1,29.86,29.77,7,1,0,0.00
2013-4-22,80.6,64.3,54.1,74.1,26.6,-37.8,98,62,1,29.87,29.74,7,2,0,0.00
2013-4-23,83.7,64.8,53.8,83.1,25.1,-39.6,98,61,1,29.83,29.72,7,2,0,0.00
2013-4-24,67.1,57.7,53.2,63.3,55.2,-24.5,98,96,2,29.86,29.75,5,1,0,0.00
2013-4-25,79.2,63.3,49.1,77.0,18.6,-40.8,98,55,1,30.00,29.83,8,2,0,0.00
2013-4-26,82.9,63.2,44.4,79.8,29.5,-35.6,98,63,1,30.03,29.96,7,2,0,0.00
2013-4-27,85.5,66.5,47.5,67.9,19.9,-34.3,98,55,1,30.01,29.84,9,2,0,0.00
2013-4-28,85.1,64.9,51.8,69.0,28.9,-33.4,98,63,1,29.88,29.70,6,2,0,0.00
2013-4-29,81.1,65.6,54.7,78.1,41.0,-32.9,98,70,1,29.77,29.64,5,2,0,0.00
2013-4-30,83.5,65.0,57.0,78.6,35.2,-35.4,98,69,1,29.74,29.66,7,2,0,0.00
2013-5-1,84.0,69.3,55.0,78.6,27.8,-33.4,98,58,1,29.95,29.74,7,2,0,0.00
2013-5-2,98.4,73.0,45.9,97.7,69.2,-42.7,98,95,1,30.03,29.87,17,3,0,0.00
2013-5-3,104.4,72.0,45.5,99.9,65.5,-47.3,98,92,1,29.90,29.62,8,2,0,0.00
2013-5-4,92.7,67.2,47.8,92.0,38.2,-45.5,98,69,1,29.68,29.57,7,2,0,0.00
2013-5-5,68.0,59.9,56.7,63.8,47.8,-38.2,98,86,1,29.79,29.67,7,3,0,0.00
2013-5-6,74.7,62.3,56.1,69.6,39.3,-36.0,98,73,1,29.88,29.74,6,2,0,0.30
2013-5-7,78.3,65.2,54.7,77.7,52.5,-33.6,98,84,1,29.93,29.84,10,2,0,0.00
2013-5-8,77.2,64.2,54.7,75.1,37.6,-36.7,98,70,1,29.96,29.92,9,3,0,0.00
2013-5-9,81.7,63.7,48.2,79.8,36.1,-34.8,98,70,1,29.96,29.87,8,2,0,0.00
2013-5-10,89.8,68.0,51.4,80.5,41.1,-30.3,98,71,1,29.97,29.86,9,2,0,0.00
2013-5-11,93.2,72.3,52.0,89.3,27.6,-31.0,98,57,1,29.93,29.84,7,1,0,0.00
2013-5-12,102.2,79.0,55.0,99.9,39.3,-29.3,98,59,1,29.91,29.74,9,2,0,0.00
2013-5-13,102.6,78.8,57.7,81.5,20.5,-33.9,98,48,1,29.83,29.73,8,2,0,0.00
2013-5-14,85.3,65.2,53.8,77.8,39.7,-36.8,98,68,1,29.84,29.76,9,3,0,0.00
2013-5-15,81.7,63.8,49.5,64.7,20.5,-37.1,98,58,1,29.90,29.80,8,2,0,0.00
2013-5-16,80.8,62.4,51.1,73.9,44.0,-38.9,98,73,1,29.85,29.75,8,2,0,0.00
2013-5-17,80.1,65.5,53.8,79.5,51.5,-32.4,98,77,1,29.84,29.76,9,2,0,0.00
2013-5-18,83.3,66.1,48.7,70.5,24.2,-36.4,98,53,1,29.91,29.82,7,2,0,0.00
2013-5-19,88.9,68.6,48.2,85.4,49.7,-34.6,98,72,1,29.86,29.70,9,2,0,0.02
2013-5-20,89.1,71.1,51.1,88.3,44.9,-38.3,98,70,1,29.81,29.72,9,2,0,0.00
2013-5-21,87.6,69.5,55.0,79.1,31.8,-40.7,98,57,1,29.80,29.67,7,2,0,0.00
2013-5-22,82.6,65.8,52.9,80.7,37.6,-37.5,98,62,1,29.70,29.61,11,3,0,0.00
2013-5-23,80.6,63.8,50.2,76.9,38.7,-41.5,98,70,1,29.80,29.68,10,3,0,0.00
2013-5-24,82.4,64.2,47.1,80.9,31.7,-37.9,98,60,1,29.84,29.75,9,2,0,0.00
2013-5-25,81.7,64.2,47.7,79.3,27.7,-41.7,98,56,1,29.88,29.81,10,2,0,0.00
2013-5-26,83.8,65.1,48.4,76.2,29.6,-39.6,98,59,1,29.90,29.84,10,2,0,0.00
2013-5-27,84.6,66.9,50.5,81.6,41.6,-35.9,98,70,1,29.86,29.69,9,2,0,0.00
2013-5-28,88.2,70.2,54.1,83.1,29.8,-36.6,98,55,1,29.73,29.57,9,2,0,0.00
2013-5-29,91.4,71.7,54.0,90.8,51.5,-35.6,98,74,1,29.67,29.55,9,2,0,0.00
2013-5-30,88.5,71.3,53.2,83.8,38.5,-33.1,98,63,1,29.71,29.61,8,2,0,0.00
2013-5-31,87.4,71.3,55.6,76.3,28.2,-34.0,98,54,1,29.76,29.66,8,2,0,0.00
2013-6-1,95.4,73.2,57.2,91.2,35.1,-31.7,98,61,1,29.70,29.56,7,2,0,0.00
2013-6-2,85.1,68.2,58.3,80.5,34.5,-32.9,98,66,1,29.68,29.62,8,2,0,0.00
2013-6-3,88.5,68.1,60.6,87.9,59.5,-31.5,98,87,1,29.75,29.64,9,2,0,0.00
2013-6-4,84.9,67.7,55.8,84.3,36.6,-33.4,98,68,1,29.83,29.74,8,2,0,0.00
2013-6-5,82.2,64.6,50.9,66.7,30.9,-35.2,98,66,1,29.87,29.79,10,2,0,0.00
2013-6-6,82.9,62.7,53.4,66.7,38.9,-34.6,98,75,1,29.82,29.77,7,1,0,0.00
2013-6-8,84.7,72.7,60.6,70.1,15.4,-32.8,98,43,1,29.76,29.68,8,3,0,0.00
2013-6-9,88.3,69.2,59.0,87.7,35.0,-33.9,98,63,1,29.77,29.71,9,3,0,0.00
2013-6-10,86.4,69.8,60.1,85.4,46.1,-37.9,98,69,1,29.82,29.74,9,2,0,0.00
2013-6-11,91.6,71.5,57.0,89.6,33.5,-33.9,98,58,1,29.80,29.73,6,2,0,0.00
2013-6-12,84.9,68.0,59.9,70.5,29.6,-34.1,98,62,1,29.88,29.78,9,3,0,0.00
2013-6-13,83.1,69.2,58.1,68.3,24.3,-34.7,98,56,1,29.88,29.74,10,2,0,0.00
2013-6-14,85.6,69.3,52.7,72.4,22.6,-31.9,98,56,1,29.77,29.68,8,2,0,0.00
2013-6-15,82.8,68.7,59.0,67.5,24.0,-34.1,98,57,1,29.83,29.73,10,3,0,0.00
2013-6-16,86.4,69.0,58.3,66.5,27.3,-32.7,98,58,1,29.90,29.79,7,2,0,0.00
2013-6-17,91.0,70.6,52.9,85.2,33.2,-34.4,98,61,1,29.84,29.72,7,2,0,0.00
2013-6-18,86.5,68.7,54.7,83.2,34.7,-34.6,98,63,1,29.78,29.67,10,3,0,0.00
2013-6-19,90.0,70.8,52.3,89.4,46.9,-39.0,98,68,1,29.73,29.62,10,2,0,0.00
2013-6-20,90.3,71.6,50.0,89.2,53.0,-36.6,98,77,1,29.71,29.64,8,2,0,0.00
2013-6-21,89.2,71.5,51.8,87.9,43.2,-38.4,98,64,1,29.76,29.67,8,2,0,0.00
2013-6-22,87.1,70.4,53.4,78.1,18.4,-33.7,98,47,1,29.77,29.66,8,2,0,0.00
2013-6-23,78.8,65.5,55.0,70.1,33.8,-34.3,98,63,1,29.74,29.65,7,2,0,0.00
2013-6-24,79.7,65.9,55.9,72.3,40.8,-34.9,98,73,1,29.80,29.67,8,2,0,0.00
2013-6-25,84.4,72.4,61.0,71.0,19.5,-32.2,98,50,1,29.85,29.75,10,2,0,0.00
2013-6-26,94.5,77.4,60.3,90.7,50.5,-32.2,98,68,1,29.84,29.76,7,2,0,0.00
2013-6-27,95.9,79.3,62.6,93.2,48.5,-30.1,98,64,1,29.87,29.80,7,1,0,0.00
2013-6-28,98.4,80.7,61.7,96.8,51.7,-32.8,98,65,1,29.84,29.71,8,2,0,0.00
2013-6-29,103.3,83.7,63.3,99.9,68.1,-31.6,98,76,1,29.72,29.57,6,1,0,0.00
2013-6-30,103.8,82.8,64.2,99.9,67.5,-29.4,98,83,1,29.66,29.54,5,1,0,0.00
2013-7-1,98.1,78.4,64.6,94.7,56.8,-28.7,98,74,1,29.73,29.63,5,2,0,0.00
2013-7-2,95.2,76.7,63.7,90.5,41.3,-28.1,98,62,1,29.83,29.71,7,2,0,0.00
2013-7-3,91.9,72.8,62.1,81.5,32.8,-30.3,98,62,1,29.78,29.65,6,2,0,0.00
2013-7-4,89.4,74.3,61.2,77.2,29.7,-29.8,98,57,1,29.69,29.58,6,2,0,0.00
2013-7-5,90.9,73.0,62.8,80.2,37.5,-30.1,98,63,1,29.70,29.60,7,2,0,0.00
2013-7-6,88.9,71.7,61.7,85.0,40.0,-29.3,98,69,1,29.69,29.59,7,2,0,0.00
2013-7-7,92.3,73.5,60.8,73.9,32.7,-30.3,98,59,1,29.71,29.62,8,2,0,0.00
2013-7-8,97.0,74.1,55.4,96.3,54.9,-32.2,98,77,1,29.79,29.71,6,1,0,0.00
2013-7-9,98.2,77.6,57.9,96.1,59.7,-31.7,98,75,1,29.84,29.76,7,2,0,0.00
2013-7-10,93.9,73.0,61.5,83.6,55.5,-30.6,98,77,1,29.83,29.74,5,1,0,0.00
2013-7-11,85.8,72.3,63.5,83.6,61.1,-28.9,98,85,1,29.83,29.73,4,1,0,0.00
2013-7-12,91.2,72.5,59.2,78.7,29.0,-31.5,98,58,1,29.79,29.71,7,2,0,0.00
2013-7-13,91.9,72.9,59.9,81.6,32.0,-31.0,98,59,1,29.82,29.70,7,2,0,0.03
2013-7-14,94.6,74.9,57.0,91.4,48.9,-28.5,98,69,1,29.79,29.65,7,2,0,0.00
2013-7-15,90.0,71.5,56.8,85.8,40.8,-34.1,98,65,1,29.74,29.66,8,2,0,0.00
2013-7-16,89.8,71.3,53.6,87.4,40.1,-34.7,98,67,1,29.83,29.72,7,2,0,0.00
2013-7-17,93.9,72.8,52.0,91.6,53.5,-34.2,98,73,1,29.90,29.81,7,2,0,0.00
2013-7-18,90.7,72.3,53.4,83.8,32.0,-32.7,98,60,1,29.85,29.72,7,2,0,0.00
2013-7-19,90.5,71.8,55.9,89.4,45.6,-29.8,98,71,1,29.77,29.66,6,2,0,0.00
2013-7-20,90.7,70.3,55.9,76.8,30.9,-31.3,98,62,1,29.75,29.61,5,1,0,0.00
2013-7-21,86.0,70.2,63.1,80.9,64.4,-28.6,98,90,1,29.79,29.66,5,1,0,0.00
2013-7-22,88.9,72.6,63.5,88.3,71.8,59.3,98,97,49,29.83,29.76,8,2,0,0.01
2013-7-23,89.1,71.5,60.4,88.5,70.9,59.8,98,98,98,29.89,29.79,6,2,0,0.00
2013-7-24,86.7,70.1,59.5,84.6,60.7,-26.9,98,86,1,29.84,29.74,6,2,0,0.00
2013-7-25,88.7,70.8,58.8,74.8,37.3,-30.4,98,65,1,29.86,29.78,6,2,0,0.00
2013-7-26,89.1,69.8,59.2,85.9,62.1,-30.4,98,88,1,29.96,29.84,7,1,0,0.00
2013-7-27,88.5,71.0,57.7,74.7,28.0,-31.7,98,56,1,29.87,29.73,8,2,0,0.00
2013-7-28,84.7,68.2,58.6,73.7,37.7,-32.0,98,67,1,29.78,29.72,9,2,0,0.00
2013-7-29,84.6,69.8,59.2,70.1,30.3,-30.0,98,60,1,29.89,29.77,6,2,0,0.00
2013-7-30,81.7,68.1,56.5,78.7,39.0,-31.2,98,68,1,29.99,29.89,7,2,0,0.00
2013-7-31,80.8,66.1,55.8,80.2,49.1,-30.4,98,76,1,29.98,29.86,9,2,0,0.00
2013-8-1,82.9,67.5,57.2,82.0,51.5,-29.0,98,79,1,29.91,29.75,8,2,0,0.00
2013-8-2,86.7,68.3,52.5,75.1,32.9,-30.4,98,63,1,29.83,29.76,7,2,0,0.00
2013-8-3,84.6,68.0,56.3,74.7,38.8,-28.9,98,68,1,29.87,29.79,8,2,0,0.00
2013-8-4,85.6,67.7,55.2,71.4,33.1,-32.5,98,63,1,29.89,29.79,6,2,0,0.00
2013-8-5,87.6,66.5,52.3,87.0,58.4,-26.1,98,91,1,29.88,29.78,8,2,0,0.00
2013-8-6,85.3,67.4,55.8,84.7,66.1,49.4,98,96,49,29.91,29.82,9,2,0,0.00
2013-8-7,83.8,68.1,54.9,79.6,35.3,-32.5,98,66,1,29.95,29.84,7,2,0,0.00
2013-8-8,86.5,67.3,52.3,85.9,63.4,-28.2,98,94,1,29.86,29.77,10,2,0,0.00
2013-8-9,84.6,67.9,53.6,84.0,66.4,51.0,98,96,41,29.82,29.77,7,2,0,0.00
2013-8-10,86.5,67.8,51.8,83.8,61.7,-29.0,98,88,1,29.90,29.81,8,2,0,0.00
2013-8-11,85.8,67.4,56.3,85.2,66.1,53.4,98,96,38,29.87,29.76,6,2,0,0.00
2013-8-12,86.4,69.5,54.9,85.8,68.9,54.3,98,98,98,29.84,29.75,8,2,0,0.00
2013-8-13,90.3,71.5,56.8,86.6,53.6,-26.2,98,78,1,29.84,29.72,5,1,0,0.00
2013-8-14,94.6,72.6,57.2,93.9,65.7,-22.7,98,90,1,29.79,29.67,6,1,0,0.00
2013-8-15,92.8,71.9,57.7,88.8,65.5,-1.6,98,88,3,29.80,29.73,5,1,0,0.00
2013-8-16,95.2,75.6,59.7,94.5,52.8,-25.6,98,76,1,29.83,29.74,5,1,0,0.00
2013-8-17,92.3,74.3,57.7,90.3,48.1,-28.2,98,71,1,29.81,29.65,6,1,0,0.00
2013-8-18,89.8,70.0,55.4,85.5,59.6,-25.2,98,86,1,29.76,29.65,7,2,0,0.02
2013-8-19,88.7,70.4,58.5,86.8,50.1,-29.4,98,79,1,29.81,29.71,5,2,0,0.00
2013-8-20,94.5,71.2,60.1,88.6,56.0,-32.1,98,82,1,29.82,29.70,6,2,0,0.00
2013-8-21,91.2,71.6,55.8,89.9,49.5,-27.5,98,74,1,29.80,29.69,6,2,0,0.00
2013-8-22,95.4,74.9,55.4,94.7,68.4,-25.6,98,91,1,29.79,29.67,8,2,0,0.00
2013-8-23,93.7,72.6,52.7,92.4,49.3,-27.9,98,74,1,29.72,29.59,6,1,0,0.00
2013-8-24,92.1,71.7,51.4,90.6,31.2,-32.8,98,58,1,29.72,29.61,7,1,0,0.00
2013-8-25,94.5,73.5,52.5,69.9,17.9,-30.3,98,49,1,29.77,29.68,6,1,0,0.00
2013-8-26,100.0,69.5,52.0,99.3,53.3,-35.9,98,78,1,29.79,29.68,6,0,0,0.00
2013-8-27,95.9,79.0,66.6,80.2,5.5,-36.6,98,29,1,29.70,29.60,9,2,0,0.00
2013-8-28,99.7,79.6,61.5,68.8,0.1,-36.9,98,28,1,29.73,29.63,8,2,0,0.00
2013-8-29,104.9,81.8,60.8,64.2,-13.0,-40.1,98,13,1,29.79,29.71,8,2,0,0.00
2013-8-30,107.6,85.5,67.3,68.1,-19.5,-36.4,98,6,1,29.81,29.73,8,1,0,0.00
2013-8-31,99.3,83.0,71.8,77.5,12.2,-32.5,98,36,1,29.81,29.71,9,2,0,0.00
2013-9-1,96.4,80.2,69.3,76.3,29.8,-30.3,98,55,1,29.77,29.67,8,2,0,0.00
2013-9-2,95.0,78.8,65.3,91.8,36.5,-29.3,98,61,1,29.77,29.64,6,2,0,0.00
2013-9-3,100.9,81.1,65.8,80.2,21.5,-34.0,98,44,1,29.75,29.65,8,2,0,0.00
2013-9-4,100.4,81.0,63.7,98.6,34.4,-35.2,98,53,1,29.77,29.67,8,2,0,0.00
2013-9-5,102.2,81.2,62.1,87.6,21.1,-35.5,98,42,1,29.75,29.65,6,1,0,0.00
2013-9-6,107.8,82.2,61.7,75.0,8.2,-36.3,98,34,1,29.74,29.62,8,2,0,0.00
2013-9-7,104.4,78.6,60.4,99.9,15.9,-37.9,98,43,1,29.73,29.63,9,2,0,0.00
2013-9-8,95.7,74.2,61.3,95.0,30.3,-34.5,98,59,1,29.71,29.59,8,1,0,0.00
2013-9-9,73.0,60.9,58.3,72.4,60.3,57.7,98,98,98,29.67,29.62,2,0,0,0.00
2013-9-10,63.5,61.2,59.2,62.9,60.6,58.6,98,98,98,29.79,29.77,2,0,0,0.00
2013-9-11,86.5,68.6,58.1,69.6,31.4,-35.2,98,62,1,29.87,29.78,8,2,0,0.00
2013-9-12,93.2,71.5,53.6,85.6,28.2,-34.6,98,58,1,29.81,29.68,7,1,0,0.00
2013-9-13,93.7,73.1,54.0,92.0,40.0,-34.3,98,68,1,29.69,29.51,8,1,0,0.00
2013-9-14,96.1,75.9,57.6,92.1,34.1,-34.1,98,60,1,29.59,29.47,5,1,0,0.00
2013-9-15,99.5,75.1,57.6,89.5,32.1,-35.8,98,59,1,29.63,29.52,7,1,0,0.00
2013-9-16,99.7,73.6,55.6,86.1,28.6,-32.0,98,58,1,29.69,29.59,6,1,0,0.00
2013-9-17,88.2,68.7,52.9,81.8,34.5,-30.9,98,63,1,29.68,29.58,7,2,0,0.00
2013-9-18,85.1,67.0,52.0,72.6,26.9,-32.2,98,62,1,29.68,29.60,9,2,0,0.00
2013-9-19,87.3,68.3,53.1,80.5,42.4,-29.8,98,73,1,29.70,29.60,7,1,0,0.00
2013-9-20,78.3,66.1,59.2,76.8,64.1,-16.8,98,96,2,29.76,29.67,7,2,0,0.00
2013-9-21,84.4,67.3,60.6,72.9,52.8,-29.4,98,82,1,29.78,29.65,11,3,0,0.00
2013-9-22,87.8,68.2,51.1,71.4,25.2,-30.6,98,59,1,29.73,29.62,9,2,0,0.00
2013-9-23,102.0,72.8,50.5,85.4,29.4,-37.9,98,57,1,29.74,29.67,7,2,0,0.00
2013-9-24,94.8,71.4,50.0,93.6,40.3,-38.1,98,68,1,29.80,29.67,8,1,0,0.00
2013-9-25,84.2,66.0,50.7,82.3,44.7,-37.4,98,72,1,29.70,29.54,10,2,0,0.00
2013-9-26,84.2,64.6,51.4,78.7,28.2,-33.4,98,65,1,29.77,29.57,10,2,0,0.00
2013-9-27,94.8,66.4,43.9,94.1,44.5,-32.7,98,79,1,29.87,29.76,8,2,0,0.00
2013-9-28,99.9,68.2,45.0,99.2,54.2,-31.2,98,83,1,29.92,29.83,7,1,0,0.00
2013-9-29,95.7,68.3,44.6,72.6,20.6,-31.5,98,56,1,29.94,29.83,6,1,0,0.00
2013-9-30,95.0,68.8,45.9,86.0,40.7,-31.6,98,68,1,29.86,29.69,7,1,0,0.00
2013-10-1,86.4,68.0,50.9,77.8,25.7,-30.5,98,60,1,29.81,29.72,8,2,0,0.00
2013-10-2,86.0,65.8,53.1,72.6,36.6,-31.2,98,72,1,29.84,29.73,7,2,0,0.00
2013-10-3,80.1,65.0,54.9,73.0,34.5,-34.9,98,68,1,29.80,29.67,8,2,0,0.00
2013-10-4,87.1,69.9,47.7,78.7,24.3,-42.3,98,57,1,29.92,29.73,14,5,0,0.00
2013-10-5,91.9,78.4,68.2,91.3,77.8,67.6,98,98,98,30.02,29.90,14,5,0,0.00
2013-10-6,104.7,73.8,46.9,99.9,47.1,-48.6,98,72,1,29.98,29.83,7,2,0,0.00
2013-10-7,93.2,66.3,48.2,76.9,9.9,-48.1,98,45,1,29.86,29.75,8,1,0,0.00
2013-10-8,82.9,62.6,46.2,67.6,26.2,-36.0,98,65,1,29.80,29.67,6,2,0,0.00
2013-10-9,64.9,57.4,48.7,63.1,46.6,-43.1,98,87,1,29.69,29.56,12,3,0,1.17
2013-10-10,78.3,57.6,40.8,68.3,16.6,-41.3,98,60,1,29.89,29.66,8,2,0,0.00
2013-10-11,80.8,59.6,43.2,68.5,23.9,-35.2,98,65,1,29.92,29.82,8,2,0,0.00
2013-10-12,84.4,60.7,43.7,70.5,28.2,-35.2,98,68,1,29.85,29.75,7,2,0,0.00
2013-10-13,76.6,58.9,45.7,69.7,37.4,-34.6,98,75,1,29.89,29.80,6,1,0,0.00
2013-10-14,91.2,67.2,44.2,74.6,22.3,-31.9,98,59,1,29.91,29.78,7,2,0,0.00
2013-10-15,94.3,66.6,43.7,61.3,8.8,-42.1,98,45,1,29.85,29.75,8,2,0,0.00
2013-10-16,96.1,68.2,45.7,85.4,22.3,-45.2,98,55,1,29.98,29.85,8,2,0,0.00
2013-10-17,92.1,63.5,41.2,84.8,44.8,-37.6,98,78,1,29.93,29.80,9,2,0,0.00
2013-10-18,93.9,63.8,42.4,58.6,11.9,-40.9,98,51,1,29.89,29.80,6,1,0,0.00
2013-10-19,97.5,63.9,41.5,63.6,19.8,-36.3,98,59,1,29.91,29.82,7,1,0,0.00
2013-10-20,85.3,61.4,42.1,70.1,22.8,-35.5,98,64,1,29.86,29.76,6,1,0,0.00
2013-10-21,82.0,63.1,50.7,75.7,38.4,-33.1,98,74,1,29.86,29.77,5,1,0,0.00
2013-10-22,82.8,61.7,48.0,71.4,33.1,-33.6,98,72,1,29.88,29.77,5,1,0,0.00
2013-10-23,76.5,61.2,53.2,72.1,39.4,-34.7,98,79,1,29.86,29.76,8,2,0,0.00
2013-10-24,79.7,63.1,55.9,67.6,34.6,-35.5,98,72,1,29.92,29.83,7,1,0,0.00
2013-10-25,84.7,63.0,54.7,84.1,42.6,-33.9,98,79,1,30.01,29.88,5,1,0,0.00
2013-10-26,88.7,62.6,45.5,72.3,24.3,-36.4,98,64,1,29.98,29.84,4,1,0,0.00
2013-10-27,80.6,59.3,42.4,64.2,23.7,-35.8,98,66,1,29.86,29.68,8,2,0,0.00
2013-10-28,69.1,58.0,52.9,68.5,44.9,-39.4,98,83,1,29.80,29.66,11,4,0,0.00
2013-10-29,71.6,57.2,45.0,71.0,45.3,-41.5,98,85,1,29.88,29.80,10,2,0,0.00
2013-10-30,81.0,56.7,40.6,77.1,45.8,-34.1,98,88,1,29.95,29.86,11,2,0,0.00
2013-10-31,88.3,58.5,39.2,76.9,15.7,-41.2,98,56,1,29.98,29.88,6,1,0,0.00
2013-11-1,94.1,62.7,39.6,62.8,1.3,-46.5,98,41,1,30.00,29.83,5,1,0,0.00
2013-11-2,92.5,61.2,41.7,68.1,23.6,-37.6,98,63,1,29.87,29.73,8,1,0,0.00
2013-11-3,77.0,57.5,44.6,70.8,32.7,-35.7,98,75,1,29.79,29.68,7,1,0,0.00
2013-11-4,75.9,58.2,44.8,67.4,32.8,-37.1,98,74,1,29.84,29.66,9,1,0,0.00
2013-11-5,78.1,61.5,43.2,46.4,-26.3,-47.5,98,13,1,30.05,29.83,8,2,0,0.00
2013-11-6,86.0,65.3,48.7,79.5,45.0,-47.4,98,72,1,30.11,30.00,10,2,0,0.00
2013-11-7,91.8,62.5,45.1,91.2,2.0,-50.0,98,35,1,30.02,29.88,7,1,0,0.00
2013-11-8,88.9,67.5,44.2,81.7,40.4,-38.5,98,65,1,29.90,29.79,4,1,0,0.00
2013-11-9,82.9,57.1,38.8,78.9,25.9,-36.8,98,69,1,29.95,29.86,5,1,0,0.00
2013-11-10,89.8,56.5,41.7,88.5,32.8,-39.7,98,74,1,30.00,29.92,8,1,0,0.00
2013-11-11,85.1,57.8,38.7,59.7,12.5,-43.7,98,57,1,30.02,29.91,5,1,0,0.00
2013-11-12,80.6,59.7,46.9,59.7,18.1,-41.2,98,59,1,30.05,29.95,5,0,0,0.00
2013-11-13,95.9,67.4,43.9,60.0,-5.8,-45.3,98,32,1,29.96,29.79,8,1,0,0.00
2013-11-14,99.1,65.6,46.0,55.2,-0.6,-47.3,98,38,1,29.83,29.61,8,1,0,0.00
2013-11-15,76.3,57.1,48.2,67.9,27.2,-39.3,98,70,1,29.63,29.53,8,1,0,0.00
2013-11-16,72.9,58.6,48.6,72.3,33.9,-41.2,98,74,1,29.80,29.60,8,2,0,0.01
2013-11-17,71.6,58.1,48.6,62.7,21.9,-37.4,98,63,1,29.93,29.80,5,1,0,0.09